User: anonymous   Login
Location: Unspecified
(0.0000°N, 0.0000°E)
Time: 19:06:32
(UTC+00:00)
Language:

ONEWEB-0250 - Orbit

View from above orbital plane
View from above orbital plane
View from above satellite
View from above satellite

Ground track
Ground track

The orbit is defined by the following mean orbital elements,

1 48968U          26145.51625392 +.00000000 +00000-0 +16063-3 0 00008
2 48968  87.9106 231.1094 0001930 129.7407 230.3899 13.25832337    02
Epoch (UTC): 25 May 2026 12:23:24
Eccentricity: 0.0001930
inclination: 87.9106°
perigee height: 1161 km
apogee height: 1164 km
right ascension of ascending node: 231.1094°
argument of perigee: 129.7407°
revolutions per day: 13.25832337
mean anomaly at epoch: 230.3899°

The dashed part of the orbit path shows where the satellite is in the earth's shadow,  

DLR